Regional Weather Roundup
Issued by NWS

Home | Current Version | Previous Version | Graphics & Text | Print | Product List | Glossary Off
Versions: 1 2 3 4 5 6 7 8 9 10 11 12 13 14 15 16 17 18 19 20 21 22 23 24 25 26 27 28 29 30 31 32 33 34 35 36 37 38 39 40 41 42 43 44 45 46 47 48 49 50

000
ASUS43 KMKX 061100
RWRWI

WISCONSIN REGIONAL WEATHER ROUNDUP
NATIONAL WEATHER SERVICE MILWAUKEE/SULLIVAN WI
600 AM CDT WED MAY 06 2015

NOTE: "FAIR" INDICATES FEW OR NO CLOUDS BELOW 12,000 FEET WITH NO
SIGNIFICANT WEATHER AND/OR OBSTRUCTIONS TO VISIBILITY.

WIZ001-002-006>008-014>016-023>028-061200-
NORTHWEST WISCONSIN

CITY           SKY/WX    TMP DP  RH WIND       PRES   REMARKS
SUPERIOR ARPT  RAIN      40  38  93 N6        30.13F
ASHLAND        CLOUDY    49  36  61 E3        30.15S
HAYWARD        CLOUDY    52  47  83 S10       30.14S
SIREN          CLOUDY    52  49  87 SE6       30.10F
CUMBERLAND     CLOUDY    50  46  87 SE8       30.12S
RICE LAKE      CLOUDY    51  48  90 SE8       30.13F
CHETEK         CLOUDY    51  49  95 E8        30.13S
LADYSMITH      CLOUDY    50  48  93 E7        30.16F
EAU CLAIRE     NOT AVBL
MENOMONIE      CLOUDY    54  52  92 E7        30.11F FOG
NEW RICHMOND   LGT RAIN  52  52  99 E8        30.09F
OSCEOLA        CLOUDY    54  54 100 SE9       30.11F
$$

WIZ003>005-009-010-017-018-061200-
NORTH CENTRAL WISCONSIN

CITY           SKY/WX    TMP DP  RH WIND       PRES   REMARKS
MANITOWISH WTR CLOUDY    51  29  43 SE5       30.18F
ARBOR VITAE    CLOUDY    52  29  41 SE5       30.18F
WOODRUFF       CLOUDY    52  29  41 SE5       30.18F
RHINELANDER    LGT RAIN  48  37  65 SE6       30.20S
EAGLE RIVER    CLOUDY    50  28  42 CALM      30.20S
LAND O LAKES   CLOUDY    38  37  94 CALM      30.20F
PHILLIPS       CLOUDY    46  43  89 SE7       30.17S
TOMAHAWK       LGT RAIN  46  42  88 E3        30.19F
MEDFORD        CLOUDY    47  44  90 SE8       30.17S
MERRILL        DRIZZLE  N/A N/A N/A SE3       30.20F
$$

WIZ029-030-035-036-043>047-061200-
CENTRAL WISCONSIN

CITY           SKY/WX    TMP DP  RH WIND       PRES   REMARKS
WAUSAU         LGT RAIN  48  43  82 E6        30.19R
MOSINEE        NOT AVBL
MARSHFIELD     CLOUDY    51  46  83 E9        30.17S
STEVENS POINT  CLOUDY    47  42  82 E3        30.19S
WAUPACA        CLOUDY    54  39  56 CALM      30.20S
WAUTOMA        NOT AVBL
WISC RAPIDS    CLOUDY    51  44  77 E8        30.18F
CAMP DOUGLAS   CLOUDY    50  50 100 E8        30.15S
$$

WIZ011>013-019>022-031-037>040-048>050-061200-
NORTHEAST WISCONSIN

CITY           SKY/WX    TMP DP  RH WIND       PRES   REMARKS
ANTIGO         CLOUDY    49  37  63 SE3       30.20S
SHAWANO        RAIN      53  43  70 E5        30.21S
OCONTO         CLOUDY    49  45  85 CALM      30.21F
STURGEON BAY   CLOUDY    48  34  57 CALM      30.25S
GREEN BAY      LGT RAIN  52  40  63 E3        30.21S
MANITOWOC      NOT AVBL
APPLETON       MOCLDY    52  37  58 E7        30.20R
CLINTONVILLE   RAIN      52  43  71 CALM      30.21R
OSHKOSH        MOCLDY    50  44  80 SE3       30.19R
$$

WIZ032>034-041-042-053>061-061200-
SOUTHWEST WISCONSIN

CITY           SKY/WX    TMP DP  RH WIND       PRES   REMARKS
LA CROSSE      CLOUDY    56  53  90 E7        30.12S FOG
SPARTA         CLOUDY    52  51  94 E6        30.15S FOG
VIROQUA        CLOUDY    51  51 100 SE9       30.13S VSB 1/4
BOSCOBEL       CLOUDY    54  52  93 NE3       30.14S FOG
PRAIRIE DU CHI CLOUDY    53  52  95 E7        30.12F FOG
PLATTEVILLE    CLOUDY    51  51  98 E9        30.13S VSB 1/4
$$

WIZ056-057-062-063-064-067-068-061200-
SOUTH CENTRAL WISCONSIN

CITY           SKY/WX    TMP DP  RH WIND       PRES   REMARKS
REEDSBURG      CLOUDY    50  50  99 E5        30.15F FOG
BARABOO/DELLS  NOT AVBL
LONE ROCK      NOT AVBL
MINERAL POINT  FOG       52  50  93 E8        30.14S VSB 1/4
MADISON        CLOUDY    50  47  89 E6        30.16S FOG
MIDDLETON      CLOUDY    52  51  99 E6        30.17S VSB 1/2
WATERTOWN      CLOUDY    48  48 100 E6        30.16F FOG
MONROE         FOG       50  50 100 E8        30.15S VSB 1/4
JANESVILLE     FOG       50  48  93 E7        30.16R VSB 1
$$

WIZ051-052-058>065-066-070>072-061200-
SOUTHEAST WISCONSIN

CITY           SKY/WX    TMP DP  RH WIND       PRES   REMARKS
MILWAUKEE      FOG       46  43  89 CALM      30.20S VSB 1
WAUKESHA       FOG       46  45  93 E5        30.19F VSB 1/2
MILWAUKEE/TIMM CLOUDY    45  43  93 CALM      30.20F FOG
RACINE         FOG       47  45  93 E6        30.20F VSB 1/4
BURLINGTON     FOG       46  46  99 CALM      30.18S VSB 1/2
KENOSHA        FOG       47  46  97 E6        30.18S VSB 1/4
FOND DU LAC    MOCLDY    49  43  80 CALM      30.19S
SHEBOYGAN      CLOUDY    46  42  86 CALM      30.21S
WEST BEND      CLOUDY    45  41  87 E3        30.20S
JUNEAU         CLOUDY    47  45  91 E5        30.19F
$$

LSZ147-162-061200-
LAKE SUPERIOR

STATION/POSITION TIME  TEMP    WIND        PRES    WAVE
                       AIR SEA DIR/SP/G            HT/PER
                 (UTC) (F)     (DEG/KT/KT) (MB)    (FT/S)
W MID LAKE BUOY  0950   40 35   80/  6/  6 1022.8S   1
DEVILS ISLAND    1000   45      80/ 11/ 12 1021.8F
PORT WING        1040   40      40/  5/  7 1020.7F
SAXON HARBOR     1000   45        CALM     1020.3F
$$

LMZ867-665-643>646-061200-
LAKE MICHIGAN

STATION/POSITION TIME  TEMP    WIND        PRES    WAVE
                       AIR SEA DIR/SP/G            HT/PER
                 (UTC) (F)     (DEG/KT/KT) (MB)    (FT/S)
CHAMBERS ISLAND  1000   44        CALM     1023.4S
NORTHPORT PIER   1000   44     150/  3/  5 1023.4S
SISTER BAY       1002   47        CALM       N/A
KEWAUNEE LAKESHO 1000   43      40/  2/  3 1022.6S
SHEBOYGAN LAKESH 1000   44      30/  5/  5 1023.6S
PORT WASHINGTON  1000   45      30/  5/  6 1023.4F
ATWATER BUOY     1000   44      10/  6/  6 1023.7F
MILWAUKEE LAKESH 1000   45      50/  5/  5   N/A
KENOSHA   LAKESH 1000   44      CALM  /  2 1022.0F
$$

TC  - TEMPERATURE IN CELSIUS
VSB - VISIBILITY IN STATUTE MILES
WCI - WIND CHILL INDEX
HX  - HEAT INDEX




USA.gov is the U.S. government's official web portal to all federal, state and local government web resources and services.